This demonstration page uses our WeatherBlox Daily Observations layout. Learn more.

36.17497, -115.13722

Hourly Observations for June 20, 2020

Temp ( °F °C ) Dew Point ( °F °C ) Humidity (%) Winds ( mph kmh ) Pressure ( in mb ) Visibility ( mi km ) Precip ( " mm )
12:53 am 00:53 Clear 81 27.2 31 -0.6 16 16 WNW 6 9 29.81 1009 10 16.0934 0 0
1:53 am 01:53 Clear 79 26.1 28 -2.2 15 15 NW 6 9 29.8 1009 10 16.0934 0 0
2:53 am 02:53 Clear 79 26.1 30 -1.1 17 17 SE 3 6 29.81 1010 10 16.0934 0 0
3:53 am 03:53 Clear 76 24.4 30 -1.1 18 18 NNW 7 11 29.82 1010 10 16.0934 0 0
4:53 am 04:53 Clear 76 24.4 29 -1.7 18 18 Calm 29.84 1010 10 16.0934 0 0
5:53 am 05:53 Sunny 77 25 27 -2.8 16 16 N 7 11 29.85 1011 10 16.0934 0 0
6:53 am 06:53 Sunny 79 26.1 29 -1.7 16 16 Calm 29.87 1011 10 16.0934 0 0
7:53 am 07:53 Sunny 87 30.6 24 -4.4 10 10 N 5 7 29.89 1012 10 16.0934 0 0
8:53 am 08:53 Sunny 89 31.7 26 -3.3 10 10 NNE 7 11 29.9 1013 10 16.0934 0 0
9:53 am 09:53 Sunny 93 33.9 24 -4.4 8 8 NE 6 9 29.89 1012 10 16.0934 0 0
10:53 am 10:53 Sunny 94 34.4 26 -3.3 9 9 E 5 7 29.89 1012 10 16.0934 0 0
11:53 am 11:53 Sunny 98 36.7 23 -5 7 7 VRB 3 6 29.88 1012 10 16.0934 0 0
12:53 pm 12:53 Sunny 100 37.8 20 -6.7 5 5 E 7 11 29.86 1011 10 16.0934 0 0
1:53 pm 13:53 Sunny 103 39.4 21 -6.1 5 5 VRB 5 7 29.84 1011 10 16.0934 0 0
2:53 pm 14:53 Sunny 103 39.4 23 -5 6 6 SE 6 9 29.81 1010 10 16.0934 0 0
3:53 pm 15:53 Sunny 105 40.6 25 -3.9 6 6 SE 10 17 29.79 1009 10 16.0934 0 0
4:53 pm 16:53 Sunny 104 40 30 -1.1 7 7 ESE 12 19 29.76 1008 10 16.0934 0 0
5:53 pm 17:53 Sunny 103 39.4 31 -0.6 8 8 SE 9 15 29.74 1007 10 16.0934 0 0
6:53 pm 18:53 Sunny 102 38.9 30 -1.1 8 8 ESE 14 22 29.75 1007 10 16.0934 0 0
7:53 pm 19:53 Sunny 100 37.8 29 -1.7 8 8 ESE 10 17 29.75 1007 10 16.0934 0 0
8:53 pm 20:53 Clear 97 36.1 29 -1.7 9 9 ESE 12 19 29.77 1008 10 16.0934 0 0
9:53 pm 21:53 Clear 97 36.1 33 0.6 10 10 SSW 9 15 29.78 1008 10 16.0934 0 0
10:53 pm 22:53 Clear 95 35 33 0.6 11 11 S 9 15 29.78 1008 10 16.0934 0 0
11:53 pm 23:53 Clear 92 33.3 29 -1.7 10 10 SSW 10 17 29.78 1008 10 16.0934 0 0

Powered by AerisWeather